TimePST,TemperatureF,Dew PointF,Humidity,Sea Level PressureIn,VisibilityMPH,Wind Direction,Wind SpeedMPH,Gust SpeedMPH,PrecipitationIn,Events,Conditions,WindDirDegrees,DateUTC
1:00 AM,41.9,39.6,91,29.65,-9999.0,ESE,40.3,48.3,N/A,,Unknown,120,2013-01-07 09:00:00
2:00 AM,40.6,37.9,90,29.64,-9999.0,ESE,39.1,46.0,N/A,,Unknown,120,2013-01-07 10:00:00
3:00 AM,41.7,38.8,89,29.67,-9999.0,SE,32.2,43.7,0.04,,Unknown,130,2013-01-07 11:00:00
4:00 AM,42,39,83,29.67,,ESE,28.8,,,,,120,2013-01-07 12:00:00
4:00 AM,41.5,38.7,89,29.67,-9999.0,ESE,28.8,-,0.15,,Unknown,120,2013-01-07 12:00:00
5:00 AM,40.5,37.6,89,29.67,-9999.0,ESE,29.9,-,0.05,,Unknown,110,2013-01-07 13:00:00
6:00 AM,40.5,37.4,89,29.68,-9999.0,ESE,24.2,-,0.02,,Unknown,120,2013-01-07 14:00:00
7:00 AM,40.5,38.1,91,29.72,-9999.0,SSE,16.1,-,0.02,,Unknown,150,2013-01-07 15:00:00
8:00 AM,41.2,39.0,92,29.73,-9999.0,SE,23.0,-,0.02,,Unknown,140,2013-01-07 16:00:00
9:00 AM,40.8,38.8,93,29.75,-9999.0,SE,23.0,-,0.05,,Unknown,140,2013-01-07 17:00:00
10:00 AM,41,39,91,29.79,,SE,13.8,,,,,130,2013-01-07 18:00:00
10:00 AM,41.2,39.2,93,29.79,-9999.0,SE,13.8,-,0.02,,Unknown,130,2013-01-07 18:00:00
11:00 AM,42.6,40.3,91,29.84,-9999.0,East,10.4,-,N/A,,Unknown,100,2013-01-07 19:00:00
12:00 PM,46.6,41.0,81,29.86,-9999.0,West,15.0,-,N/A,,Unknown,280,2013-01-07 20:00:00
1:00 PM,45.7,41.5,85,29.88,-9999.0,West,17.3,24.2,0.02,,Unknown,270,2013-01-07 21:00:00
2:00 PM,45.9,38.3,75,29.90,-9999.0,WNW,28.8,-,N/A,,Unknown,290,2013-01-07 22:00:00
3:00 PM,45.5,37.0,72,29.96,-9999.0,WNW,21.9,31.1,N/A,,Unknown,290,2013-01-07 23:00:00
4:00 PM,45,36,60,29.98,,WNW,19.6,,,,,300,2013-01-08 00:00:00
4:00 PM,45.1,35.6,69,29.98,-9999.0,WNW,19.6,-,N/A,,Unknown,300,2013-01-08 00:00:00
5:00 PM,45.1,35.8,70,30.01,-9999.0,WNW,16.1,-,N/A,,Unknown,290,2013-01-08 01:00:00
6:00 PM,44.8,36.3,72,30.01,-9999.0,NW,10.4,-,N/A,,Unknown,310,2013-01-08 02:00:00
7:00 PM,43.9,36.7,76,30.02,-9999.0,SW,8.1,-,N/A,,Unknown,220,2013-01-08 03:00:00
8:00 PM,43.5,36.7,77,30.03,-9999.0,SSW,9.2,-,N/A,,Unknown,210,2013-01-08 04:00:00
9:00 PM,43.5,36.9,77,30.04,-9999.0,SSW,8.1,-,N/A,,Unknown,210,2013-01-08 05:00:00
10:00 PM,44,36,64,30.05,,SSW,3.5,,,,,210,2013-01-08 06:00:00
10:00 PM,43.7,36.0,74,30.05,-9999.0,SSW,3.5,-,N/A,,Unknown,210,2013-01-08 06:00:00
11:00 PM,43.5,36.3,76,30.05,-9999.0,South,5.8,-,N/A,,Unknown,180,2013-01-08 07:00:00